• In Deutschland
  • Länderverzeichnis
  • Für 7 Tage
  • Wassertemperatur
  • Satellitenkarten
  • Wetterkarte
  • Widgets
  • user-avatar
    Anmelden

    Stündliche Wetter Lüneburg

    Heute, 20 September, Donnerstag

    Zeit Temperatur Niederschläge Wind Luftdruck Luftfeuchtigkeit
    00:00 +19°C° 0 mm 3 m/S 760 mmHg 74%
    01:00 +18°C° 0 mm 3 m/S 760 mmHg 74%
    02:00 +18°C° 0 mm 3 m/S 760 mmHg 75%
    03:00 +18°C° 0 mm 3 m/S 760 mmHg 75%
    04:00 +18°C° 0 mm 3 m/S 760 mmHg 76%
    05:00 +18°C° 0 mm 3 m/S 760 mmHg 76%
    06:00 +18°C° 0 mm 3 m/S 760 mmHg 77%
    07:00 +18°C° 0 mm 3 m/S 760 mmHg 77%
    08:00 +20°C° 0 mm 4 m/S 760 mmHg 70%
    09:00 +22°C° 0 mm 4 m/S 760 mmHg 64%
    10:00 +25°C° 0 mm 5 m/S 760 mmHg 57%
    11:00 +25°C° 0 mm 5 m/S 760 mmHg 54%
    12:00 +26°C° 0 mm 5 m/S 759 mmHg 52%
    13:00 +27°C° 0 mm 5 m/S 759 mmHg 50%
    14:00 +27°C° 0 mm 5 m/S 759 mmHg 49%
    15:00 +27°C° 0 mm 4 m/S 758 mmHg 49%
    16:00 +27°C° 0 mm 4 m/S 758 mmHg 49%
    17:00 +25°C° 0 mm 3 m/S 758 mmHg 55%
    18:00 +22°C° 0 mm 3 m/S 757 mmHg 60%
    19:00 +21°C° 0 mm 2 m/S 757 mmHg 66%
    20:00 +21°C° 0 mm 2 m/S 757 mmHg 67%
    21:00 +20°C° 0 mm 3 m/S 756 mmHg 68%
    22:00 +20°C° 0 mm 3 m/S 756 mmHg 69%
    23:00 +20°C° 0 mm 3 m/S 756 mmHg 68%

    Morgen, 21 September, Freitag

    Zeit Temperatur Niederschläge Wind Luftdruck Luftfeuchtigkeit
    00:00 +20°C° 0 mm 4 m/S 755 mmHg 68%
    01:00 +20°C° 0 mm 4 m/S 754 mmHg 67%
    02:00 +20°C° 0 mm 4 m/S 754 mmHg 67%
    03:00 +20°C° 0 mm 4 m/S 753 mmHg 67%
    04:00 +19°C° 0 mm 5 m/S 752 mmHg 66%
    05:00 +20°C° 0 mm 5 m/S 752 mmHg 65%
    06:00 +21°C° 0 mm 6 m/S 751 mmHg 64%
    07:00 +21°C° 0 mm 6 m/S 750 mmHg 63%
    08:00 +22°C° 0.2 mm 7 m/S 750 mmHg 61%
    09:00 +23°C° 0.2 mm 7 m/S 749 mmHg 59%
    10:00 +24°C° 0.2 mm 8 m/S 749 mmHg 57%
    11:00 +22°C° 1.2 mm 8 m/S 749 mmHg 64%
    12:00 +18°C° 1.2 mm 8 m/S 750 mmHg 71%
    13:00 +16°C° 1.2 mm 8 m/S 750 mmHg 78%
    14:00 +16°C° 0.3 mm 8 m/S 751 mmHg 70%
    15:00 +16°C° 0.3 mm 8 m/S 752 mmHg 63%
    16:00 +16°C° 0.3 mm 7 m/S 753 mmHg 55%
    17:00 +15°C° 0 mm 6 m/S 753 mmHg 56%
    18:00 +13°C° 0 mm 5 m/S 754 mmHg 58%
    19:00 +12°C° 0 mm 5 m/S 755 mmHg 60%
    20:00 +12°C° 0 mm 5 m/S 755 mmHg 58%
    21:00 +12°C° 0 mm 5 m/S 755 mmHg 56%
    22:00 +11°C° 0 mm 6 m/S 755 mmHg 55%
    23:00 +11°C° 0 mm 6 m/S 756 mmHg 57%

    übermorgen, 22 September, Samstag

    Zeit Temperatur Niederschläge Wind Luftdruck Luftfeuchtigkeit
    00:00 +11°C° 0 mm 7 m/S 756 mmHg 58%
    01:00 +11°C° 0 mm 8 m/S 756 mmHg 60%
    02:00 +11°C° 0 mm 7 m/S 757 mmHg 63%
    03:00 +10°C° 0 mm 6 m/S 758 mmHg 67%
    04:00 +10°C° 0 mm 5 m/S 758 mmHg 70%
    05:00 +10°C° 0 mm 5 m/S 759 mmHg 72%
    06:00 +10°C° 0 mm 5 m/S 759 mmHg 74%
    07:00 +9°C° 0 mm 5 m/S 759 mmHg 75%
    08:00 +12°C° 0 mm 5 m/S 760 mmHg 69%
    09:00 +13°C° 0 mm 6 m/S 760 mmHg 63%
    10:00 +15°C° 0 mm 7 m/S 760 mmHg 57%
    11:00 +15°C° 0.1 mm 7 m/S 760 mmHg 55%
    12:00 +16°C° 0.1 mm 8 m/S 760 mmHg 52%
    13:00 +16°C° 0.1 mm 8 m/S 760 mmHg 50%
    14:00 +16°C° 0.1 mm 8 m/S 760 mmHg 49%
    15:00 +16°C° 0.1 mm 7 m/S 761 mmHg 49%
    16:00 +15°C° 0.1 mm 7 m/S 761 mmHg 49%
    17:00 +14°C° 0 mm 6 m/S 761 mmHg 54%
    18:00 +13°C° 0 mm 5 m/S 761 mmHg 60%
    19:00 +12°C° 0 mm 4 m/S 761 mmHg 65%
    20:00 +11°C° 0 mm 3 m/S 761 mmHg 67%
    21:00 +11°C° 0 mm 3 m/S 761 mmHg 69%
    22:00 +11°C° 0 mm 3 m/S 762 mmHg 70%
    23:00 +10°C° 0 mm 3 m/S 761 mmHg 72%

    23 September, Sonntag

    Zeit Temperatur Niederschläge Wind Luftdruck Luftfeuchtigkeit
    00:00 +10°C° 0 mm 3 m/S 761 mmHg 74%
    01:00 +10°C° 0 mm 3 m/S 761 mmHg 76%
    02:00 +10°C° 0.1 mm 3 m/S 760 mmHg 79%
    03:00 +10°C° 0.1 mm 3 m/S 760 mmHg 81%
    04:00 +10°C° 0.1 mm 2 m/S 760 mmHg 83%
    05:00 +10°C° 0.3 mm 2 m/S 759 mmHg 86%
    06:00 +9°C° 0.3 mm 2 m/S 759 mmHg 89%
    07:00 +9°C° 0.3 mm 2 m/S 758 mmHg 92%
    08:00 +10°C° 0.5 mm 2 m/S 757 mmHg 92%
    09:00 +10°C° 0.5 mm 2 m/S 756 mmHg 91%
    10:00 +10°C° 0.5 mm 3 m/S 756 mmHg 90%
    11:00 +10°C° 2.5 mm 3 m/S 754 mmHg 91%
    12:00 +10°C° 2.5 mm 4 m/S 753 mmHg 92%
    13:00 +10°C° 2.5 mm 4 m/S 752 mmHg 93%
    14:00 +9°C° 3.2 mm 5 m/S 750 mmHg 93%
    15:00 +9°C° 3.2 mm 5 m/S 749 mmHg 93%
    16:00 +9°C° 3.2 mm 6 m/S 748 mmHg 94%
    17:00 +8°C° 5.3 mm 6 m/S 748 mmHg 93%
    18:00 +8°C° 5.3 mm 7 m/S 747 mmHg 92%
    19:00 +7°C° 5.3 mm 8 m/S 747 mmHg 92%
    20:00 +7°C° 1.4 mm 8 m/S 748 mmHg 90%
    21:00 +8°C° 1.4 mm 7 m/S 750 mmHg 89%
    22:00 +8°C° 1.4 mm 7 m/S 751 mmHg 87%
    23:00 +8°C° 0.2 mm 6 m/S 753 mmHg 86%

    24 September, Montag

    Zeit Temperatur Niederschläge Wind Luftdruck Luftfeuchtigkeit
    00:00 +8°C° 0.2 mm 6 m/S 754 mmHg 85%
    01:00 +7°C° 0.2 mm 5 m/S 756 mmHg 84%
    02:00 +7°C° 0 mm 5 m/S 757 mmHg 83%
    03:00 +7°C° 0 mm 6 m/S 758 mmHg 81%
    04:00 +7°C° 0 mm 6 m/S 759 mmHg 80%
    05:00 +7°C° 0 mm 6 m/S 760 mmHg 79%
    06:00 +8°C° 0 mm 6 m/S 761 mmHg 77%
    07:00 +8°C° 0 mm 6 m/S 762 mmHg 75%
    08:00 +9°C° 0 mm 6 m/S 763 mmHg 68%
    09:00 +10°C° 0 mm 7 m/S 764 mmHg 61%
    10:00 +12°C° 0 mm 8 m/S 765 mmHg 55%
    11:00 +12°C° 0.1 mm 7 m/S 765 mmHg 53%
    12:00 +14°C° 0.1 mm 7 m/S 766 mmHg 52%
    13:00 +14°C° 0.1 mm 7 m/S 767 mmHg 50%
    14:00 +14°C° 0.1 mm 7 m/S 767 mmHg 51%
    15:00 +13°C° 0.1 mm 6 m/S 768 mmHg 52%
    16:00 +13°C° 0.1 mm 6 m/S 768 mmHg 53%
    17:00 +12°C° 0.1 mm 5 m/S 768 mmHg 59%
    18:00 +10°C° 0.1 mm 5 m/S 769 mmHg 65%
    19:00 +10°C° 0.1 mm 4 m/S 769 mmHg 71%
    20:00 +8°C° 0 mm 4 m/S 769 mmHg 74%
    21:00 +8°C° 0 mm 4 m/S 770 mmHg 76%
    22:00 +7°C° 0 mm 4 m/S 770 mmHg 79%
    23:00 +7°C° 0 mm 4 m/S 770 mmHg 80%

    25 September, Dienstag

    Zeit Temperatur Niederschläge Wind Luftdruck Luftfeuchtigkeit
    00:00 +7°C° 0 mm 4 m/S 770 mmHg 82%
    01:00 +7°C° 0 mm 4 m/S 770 mmHg 83%
    02:00 +7°C° 0 mm 4 m/S 770 mmHg 84%
    03:00 +7°C° 0 mm 5 m/S 770 mmHg 84%
    04:00 +7°C° 0 mm 5 m/S 770 mmHg 85%
    05:00 +7°C° 0.1 mm 5 m/S 769 mmHg 85%
    06:00 +8°C° 0.1 mm 6 m/S 769 mmHg 85%
    07:00 +8°C° 0.1 mm 6 m/S 769 mmHg 86%
    08:00 +9°C° 0.5 mm 6 m/S 769 mmHg 84%
    09:00 +10°C° 0.5 mm 6 m/S 769 mmHg 82%
    10:00 +11°C° 0.5 mm 6 m/S 769 mmHg 80%
    11:00 +13°C° 0.3 mm 6 m/S 769 mmHg 74%
    12:00 +14°C° 0.3 mm 7 m/S 769 mmHg 68%
    13:00 +15°C° 0.3 mm 7 m/S 769 mmHg 63%
    14:00 +15°C° 0.1 mm 7 m/S 769 mmHg 62%
    15:00 +15°C° 0.1 mm 6 m/S 769 mmHg 60%
    16:00 +15°C° 0.1 mm 6 m/S 769 mmHg 59%
    17:00 +13°C° 0 mm 5 m/S 770 mmHg 66%
    18:00 +12°C° 0 mm 4 m/S 770 mmHg 73%
    19:00 +11°C° 0 mm 3 m/S 770 mmHg 80%
    20:00 +10°C° 0 mm 2 m/S 771 mmHg 84%
    21:00 +10°C° 0 mm 2 m/S 771 mmHg 88%
    22:00 +9°C° 0 mm 2 m/S 772 mmHg 92%
    23:00 +9°C° 0 mm 2 m/S 772 mmHg 93%
    Mehr zeigen